TimeCEST,TemperatureF,Dew PointF,Humidity,Sea Level PressureIn,VisibilityMPH,Wind Direction,Wind SpeedMPH,Gust SpeedMPH,PrecipitationIn,Events,Conditions,WindDirDegrees,DateUTC
12:55 AM,55.4,42.8,63,30.36,-9999.0,North,5.8,-,N/A,,Clear,10,2013-07-31 22:55:00
1:55 AM,55.4,44.6,67,30.36,-9999.0,NNE,4.6,-,N/A,,Clear,20,2013-07-31 23:55:00
2:00 AM,55,45,59,,19,NNE,4.6,,,,,20,2013-08-01 00:00:00
2:55 AM,53.6,46.4,77,30.36,-9999.0,Variable,2.3,-,N/A,,Clear,0,2013-08-01 00:55:00
3:55 AM,53.6,48.2,82,30.36,-9999.0,Variable,3.5,-,N/A,,Clear,0,2013-08-01 01:55:00
4:55 AM,53.6,48.2,82,30.36,-9999.0,SSW,9.2,-,N/A,,Clear,210,2013-08-01 02:55:00
5:00 AM,53,48,77,,25,SSW,9.2,,,,,210,2013-08-01 03:00:00
5:55 AM,53.6,48.2,82,30.36,-9999.0,SSW,9.2,-,N/A,,Clear,210,2013-08-01 03:55:00
6:55 AM,51.8,48.2,88,30.36,-9999.0,SW,9.2,-,N/A,,Clear,230,2013-08-01 04:55:00
7:55 AM,53.6,50.0,88,30.36,-9999.0,WSW,5.8,-,N/A,,Clear,240,2013-08-01 05:55:00
8:00 AM,53,49,82,,19,WSW,5.8,,,,,240,2013-08-01 06:00:00
8:55 AM,57.2,50.0,77,30.36,-9999.0,West,2.3,-,N/A,,Clear,280,2013-08-01 06:55:00
9:55 AM,57.2,50.0,77,30.39,-9999.0,WNW,2.3,-,N/A,,Clear,300,2013-08-01 07:55:00
10:55 AM,57.2,51.8,82,30.39,6.2,WNW,2.3,-,N/A,,Partly Cloudy,300,2013-08-01 08:55:00
11:00 AM,58,51,71,,25,WNW,2.3,,,,Scattered Clouds,300,2013-08-01 09:00:00
11:55 AM,57.2,51.8,82,30.39,6.2,Variable,3.5,-,N/A,,Partly Cloudy,0,2013-08-01 09:55:00
12:55 PM,57.2,51.8,82,30.39,6.2,South,4.6,-,N/A,,Partly Cloudy,190,2013-08-01 10:55:00
1:55 PM,59.0,51.8,77,30.39,6.2,Variable,3.5,-,N/A,,Partly Cloudy,0,2013-08-01 11:55:00
2:00 PM,59,52,71,,25,,3.5,,,,Scattered Clouds,,2013-08-01 12:00:00
2:55 PM,59.0,50.0,72,30.39,6.2,SW,5.8,-,N/A,,Partly Cloudy,220,2013-08-01 12:55:00
3:55 PM,62.6,48.2,59,30.39,6.2,SW,9.2,-,N/A,,Partly Cloudy,230,2013-08-01 13:55:00
4:55 PM,64.4,48.2,56,30.39,6.2,SW,8.1,-,N/A,,Partly Cloudy,220,2013-08-01 14:55:00
5:00 PM,65,47,42,,25,SW,8.1,,,,Scattered Clouds,220,2013-08-01 15:00:00
5:55 PM,66.2,44.6,46,30.39,6.2,SW,5.8,-,N/A,,Partly Cloudy,220,2013-08-01 15:55:00
6:55 PM,66.2,44.6,46,30.36,6.2,SW,8.1,-,N/A,,Partly Cloudy,220,2013-08-01 16:55:00
7:55 PM,64.4,41.0,42,30.36,6.2,SW,15.0,-,N/A,,Partly Cloudy,230,2013-08-01 17:55:00
8:55 PM,60.8,42.8,52,30.36,6.2,SW,17.3,-,N/A,,Partly Cloudy,230,2013-08-01 18:55:00
9:55 PM,59.0,48.2,67,30.39,-9999.0,SSW,17.3,-,N/A,,Clear,210,2013-08-01 19:55:00
10:55 PM,57.2,48.2,72,30.39,-9999.0,SW,17.3,-,N/A,,Clear,230,2013-08-01 20:55:00
11:00 PM,58,48,61,,25,SW,17.3,,,,,230,2013-08-01 21:00:00
11:55 PM,57.2,51.8,82,30.39,-9999.0,SW,11.5,-,N/A,,Clear,230,2013-08-01 21:55:00